Weather History for KNUQ - March, 2013

Change the Weather History Date:

Saturday, March 23, 2013

  Actual Average Record
Temperature  
Mean Temperature 57 °F 57 °F  
Max Temperature 68 °F 66 °F 78 °F (2007)
Min Temperature 46 °F 48 °F 36 °F (1946)
Degree Days  
Heating Degree Days 8    
Month to date heating degree days 192  
Since 1 July heating degree days 1869  
Cooling Degree Days 0    
Month to date cooling degree days 0  
Year to date cooling degree days 0  
Growing Degree Days 6 (Base 50)    
Moisture  
Dew Point 36 °F    
Average Humidity 50    
Maximum Humidity 77    
Minimum Humidity 22    
Precipitation  
Precipitation 0.00 in 0.07 in 0.65 in (1993)
Month to date precipitation 0.70 1.80  
Year to date precipitation 1.42 7.62  
Since 1 July precipitation 9.19  
Sea Level Pressure  
Sea Level Pressure 30.11 in    
Wind  
Wind Speed 5 mph (NNW)    
Max Wind Speed 16 mph    
Max Gust Speed 21 mph    
Visibility 10 miles    
Events      
T = Trace of Precipitation, MM = Missing Value Source: NWS Daily Summary

Daily Weather History Graph

Daily Weather History Graph

Search for Another Location

Airport or City:

Trip Planner

Search our weather history database for the weather conditions in past years. The results will help you decide how hot, cold, wet, or windy it might be!

Date:

Astronomy

Mar. 23, 2013 Rise Set
Actual Time 7:06 AM PDT 7:23 PM PDT
Civil Twilight 6:40 AM PDT 7:49 PM PDT
Nautical Twilight 6:10 AM PDT 8:19 PM PDT
Astronomical Twilight 5:39 AM PDT 8:50 PM PDT
Moon 3:59 PM PDT (3/23) 4:42 AM PDT (3/23)
Length of Visible Light 13h 08m
Length of Day
12h 16m
Waxing Gibbous, 86% of the Moon is Illuminated
Mar 23
Waxing Gibbous
Mar 27
Full
Apr 2
Last Quarter
Apr 10
New
Apr 18
First Quarter

Hourly Weather History & Observations

Time (PDT) Temp. Dew Point Humidity Pressure Visibility Wind Dir Wind Speed Gust Speed Precip Events Conditions
12:56 AM 50.0 °F 34.0 °F 54% 30.11 in 10.0 mi Calm Calm - N/A   Clear
1:56 AM 48.9 °F 34.0 °F 56% 30.11 in 10.0 mi Calm Calm - N/A   Clear
2:56 AM 48.0 °F 35.1 °F 61% 30.11 in 10.0 mi Calm Calm - N/A   Clear
3:56 AM 46.9 °F 36.0 °F 66% 30.10 in 10.0 mi Calm Calm - N/A   Clear
4:56 AM 48.0 °F 37.0 °F 66% 30.11 in 10.0 mi West 3.5 mph - N/A   Clear
5:56 AM 50.0 °F 37.9 °F 63% 30.12 in 10.0 mi West 4.6 mph - N/A   Clear
6:56 AM 46.9 °F 36.0 °F 66% 30.12 in 10.0 mi West 3.5 mph - N/A   Clear
7:56 AM 48.9 °F 36.0 °F 61% 30.14 in 10.0 mi West 4.6 mph - N/A   Clear
8:56 AM 55.9 °F 36.0 °F 47% 30.16 in 10.0 mi NW 8.1 mph - N/A   Clear
9:56 AM 59.0 °F 28.0 °F 31% 30.15 in 10.0 mi North 12.7 mph - N/A   Clear
10:56 AM 61.0 °F 23.0 °F 23% 30.15 in 10.0 mi North 11.5 mph - N/A   Clear
11:56 AM 62.1 °F 25.0 °F 24% 30.14 in 10.0 mi North 4.6 mph - N/A   Clear
12:56 PM 64.0 °F 26.1 °F 24% 30.13 in 10.0 mi Calm Calm - N/A   Clear
1:56 PM 66.0 °F 27.0 °F 23% 30.11 in 10.0 mi NNW 4.6 mph - N/A   Clear
2:56 PM 66.0 °F 28.9 °F 25% 30.09 in 10.0 mi North 3.5 mph - N/A   Clear
3:56 PM 66.9 °F 28.9 °F 24% 30.07 in 10.0 mi NW 4.6 mph - N/A   Clear
4:56 PM 64.0 °F 39.0 °F 40% 30.06 in 10.0 mi NNW 12.7 mph - N/A   Clear
5:56 PM 64.0 °F 42.1 °F 45% 30.06 in 10.0 mi NNW 11.5 mph - N/A   Clear
6:56 PM 59.0 °F 46.0 °F 62% 30.07 in 10.0 mi North 13.8 mph - N/A   Clear
7:56 PM 55.9 °F 46.9 °F 72% 30.09 in 10.0 mi North 10.4 mph - N/A   Clear
8:56 PM 53.1 °F 46.0 °F 77% 30.10 in 10.0 mi North 6.9 mph - N/A   Clear
9:56 PM 53.1 °F 46.0 °F 77% 30.11 in 10.0 mi Calm Calm - N/A   Clear
10:56 PM 52.0 °F 45.0 °F 77% 30.11 in 10.0 mi North 3.5 mph - N/A   Clear
11:56 PM 51.1 °F 45.0 °F 80% 30.11 in 10.0 mi Calm Calm - N/A   Clear